User: anonymous
Location: CNYAC Observatory
(43.2150°N, 74.9500°W)
Time: 19:58:05
(UTC-04:00)
Language:

Meteor 1-22 Rocket - Orbit

View from above orbital plane
View from above orbital plane
View from above satellite
View from above satellite

Ground track
Ground track

The orbit data is extracted from the following two-line orbital elements,

1 08294U 75087B   14107.99017097  .00000206  00000-0  10679-3 0  9494
2 08294 081.2227 069.2713 0105878 064.4077 002.8342 14.08493074982099
Epoch (UTC): 17 April 2014 23:45:50
Eccentricity: 0.0105878
inclination: 81.2227°
perigee height: 788 km
apogee height: 941 km
right ascension of ascending node: 69.2713°
argument of perigee: 64.4077°
revolutions per day: 14.08493074
mean anomaly at epoch: 2.8342°
orbit number at epoch: 98209

The dashed part of the orbit path shows where the satellite is in the earth's shadow,  

DLR